| time (UTC) | temp C | wind direction | speed KPH | gust KPH | rain 1hr cm | rain 24hr cm | rain mn cm | humidity % | barometer mb |
| 20260505101956 | 15 | 275 | 1.6 | 6.4 | 0.00 | 0.08 | 0.00 | 75 | 1021.8 |
| 20260505101456 | 16 | 294 | 1.6 | 6.4 | 0.00 | 0.08 | 0.00 | 75 | 1021.7 |
| 20260505100954 | 16 | 231 | 1.6 | 12.9 | 0.00 | 0.08 | 0.00 | 75 | 1021.7 |
| 20260505100503 | 15 | 288 | 3.2 | 12.9 | 0.00 | 0.08 | 0.00 | 74 | 1021.7 |
| 20260505095312 | 16 | 299 | 1.6 | 8.0 | 0.00 | 0.08 | 0.00 | 75 | 1021.7 |
| 20260505094759 | 16 | 301 | 1.6 | 8.0 | 0.00 | 0.08 | 0.00 | 74 | 1021.7 |
| 20260505093615 | 16 | 274 | 1.6 | 4.8 | 0.00 | 0.08 | 0.00 | 74 | 1021.7 |
| 20260505093057 | 16 | 291 | 0.0 | 3.2 | 0.00 | 0.08 | 0.00 | 73 | 1021.7 |
| 20260505092550 | 16 | 317 | 0.0 | 4.8 | 0.00 | 0.08 | 0.00 | 73 | 1021.7 |
| 20260505092054 | 16 | 279 | 0.0 | 4.8 | 0.00 | 0.08 | 0.00 | 73 | 1021.6 |
| 20260505091552 | 16 | 266 | 1.6 | 4.8 | 0.00 | 0.08 | 0.00 | 72 | 1021.7 |
| 20260505091059 | 16 | 271 | 1.6 | 4.8 | 0.00 | 0.08 | 0.00 | 72 | 1021.6 |
| 20260505085931 | 15 | 260 | 0.0 | 4.8 | 0.00 | 0.08 | 0.00 | 72 | 1021.5 |
| 20260505085419 | 15 | 289 | 0.0 | 4.8 | 0.00 | 0.08 | 0.00 | 72 | 1021.4 |
| 20260505084901 | 15 | 257 | 0.0 | 3.2 | 0.00 | 0.08 | 0.00 | 73 | 1021.4 |
| 20260505084404 | 15 | 276 | 0.0 | 3.2 | 0.00 | 0.08 | 0.00 | 74 | 1021.4 |
| 20260505083855 | 15 | 247 | 0.0 | 0.0 | 0.00 | 0.08 | 0.00 | 74 | 1021.4 |
| 20260505083357 | 15 | 247 | 0.0 | 0.0 | 0.00 | 0.08 | 0.00 | 74 | 1021.3 |
| 20260505082234 | 15 | 247 | 0.0 | 0.0 | 0.00 | 0.08 | 0.00 | 74 | 1021.2 |
| 20260505081719 | 15 | 247 | 0.0 | 0.0 | 0.00 | 0.08 | 0.00 | 74 | 1021.2 |
| 20260505081205 | 15 | 247 | 0.0 | 0.0 | 0.00 | 0.08 | 0.00 | 74 | 1021.1 |
| 20260505080702 | 15 | 247 | 0.0 | 0.0 | 0.00 | 0.08 | 0.00 | 74 | 1021.1 |
| 20260505080147 | 15 | 247 | 0.0 | 0.0 | 0.00 | 0.08 | 0.00 | 73 | 1021.0 |
| 20260505075643 | 15 | 247 | 0.0 | 0.0 | 0.00 | 0.08 | 0.00 | 73 | 1020.9 |
| 20260505075137 | 15 | 247 | 0.0 | 0.0 | 0.00 | 0.08 | 0.00 | 73 | 1020.8 |
| 20260505073950 | 15 | 247 | 0.0 | 1.6 | 0.00 | 0.08 | 0.00 | 73 | 1020.8 |
| 20260505073454 | 15 | 247 | 0.0 | 0.0 | 0.00 | 0.08 | 0.00 | 73 | 1020.7 |
| 20260505072950 | 15 | 247 | 0.0 | 0.0 | 0.00 | 0.08 | 0.00 | 72 | 1020.7 |
| 20260505072437 | 15 | 247 | 0.0 | 0.0 | 0.00 | 0.08 | 0.00 | 73 | 1020.7 |
| 20260505071930 | 15 | 247 | 0.0 | 1.6 | 0.00 | 0.08 | 0.00 | 73 | 1020.7 |
| 20260505071419 | 15 | 247 | 0.0 | 1.6 | 0.00 | 0.08 | 0.00 | 73 | 1020.6 |
| 20260505070915 | 15 | 290 | 0.0 | 0.0 | 0.00 | 0.08 | 0.00 | 73 | 1020.6 |
| 20260505070410 | 15 | 291 | 0.0 | 0.0 | 0.00 | 0.08 | 0.00 | 74 | 1020.5 |
| 20260505065920 | 15 | 290 | 0.0 | 3.2 | 0.00 | 0.10 | 0.00 | 74 | 1020.5 |
| 20260505065423 | 15 | 280 | 0.0 | 3.2 | 0.00 | 0.10 | 0.00 | 74 | 1020.4 |
| 20260505064932 | 16 | 265 | 0.0 | 0.0 | 0.00 | 0.10 | 0.00 | 74 | 1020.5 |
| 20260505064429 | 16 | 265 | 0.0 | 1.6 | 0.00 | 0.10 | 0.00 | 74 | 1020.4 |
| 20260505063921 | 16 | 265 | 0.0 | 0.0 | 0.00 | 0.10 | 0.00 | 74 | 1020.4 |
| 20260505063430 | 16 | 317 | 0.0 | 0.0 | 0.00 | 0.10 | 0.00 | 74 | 1020.4 |
| 20260505062304 | 16 | 261 | 0.0 | 4.8 | 0.00 | 0.10 | 0.00 | 74 | 1020.3 |
| 20260505061155 | 16 | 314 | 1.6 | 4.8 | 0.00 | 0.10 | 0.00 | 73 | 1020.2 |
| 20260505060025 | 16 | 269 | 0.0 | 4.8 | 0.00 | 0.10 | 0.00 | 73 | 1020.2 |
| 20260505054850 | 16 | 282 | 0.0 | 0.0 | 0.00 | 0.10 | 0.00 | 72 | 1020.1 |
| 20260505054347 | 16 | 282 | 0.0 | 3.2 | 0.00 | 0.10 | 0.00 | 72 | 1020.1 |
| 20260505053853 | 16 | 255 | 0.0 | 3.2 | 0.00 | 0.10 | 0.00 | 72 | 1020.0 |
| 20260505053349 | 16 | 257 | 0.0 | 3.2 | 0.00 | 0.10 | 0.00 | 72 | 1019.9 |
| 20260505052853 | 16 | 257 | 0.0 | 3.2 | 0.00 | 0.10 | 0.00 | 72 | 1019.9 |
| 20260505051724 | 16 | 260 | 0.0 | 6.4 | 0.00 | 0.10 | 0.00 | 71 | 1019.8 |
| 20260505051207 | 16 | 260 | 0.0 | 6.4 | 0.00 | 0.10 | 0.00 | 72 | 1019.8 |
| 20260505050715 | 16 | 260 | 0.0 | 6.4 | 0.00 | 0.10 | 0.00 | 71 | 1019.7 |
| 20260505050159 | 16 | 261 | 1.6 | 6.4 | 0.00 | 0.10 | 0.00 | 71 | 1019.7 |
| 20260505041444 | 16 | 78 | 1.6 | 8.0 | 0.00 | 0.10 | 0.00 | 70 | 1019.4 |
| 20260505040928 | 16 | 307 | 1.6 | 8.0 | 0.00 | 0.10 | 0.00 | 70 | 1019.4 |
| 20260505040436 | 16 | 284 | 0.0 | 8.0 | 0.00 | 0.10 | 0.00 | 69 | 1019.3 |
| 20260505035924 | 16 | 302 | 0.0 | 6.4 | 0.00 | 0.10 | 0.00 | 70 | 1019.2 |
| 20260505035405 | 16 | 288 | 0.0 | 6.4 | 0.00 | 0.10 | 0.00 | 70 | 1019.2 |
| 20260505034853 | 16 | 265 | 0.0 | 4.8 | 0.00 | 0.10 | 0.00 | 70 | 1019.2 |
| 20260505034335 | 16 | 259 | 0.0 | 9.7 | 0.00 | 0.10 | 0.00 | 70 | 1019.2 |
| 20260505033839 | 16 | 30 | 0.0 | 9.7 | 0.00 | 0.10 | 0.00 | 71 | 1019.2 |
| 20260505033341 | 16 | 34 | 0.0 | 9.7 | 0.00 | 0.10 | 0.00 | 70 | 1019.2 |
| 20260505032823 | 16 | 34 | 0.0 | 9.7 | 0.00 | 0.10 | 0.00 | 70 | 1019.2 |
| 20260505032315 | 16 | 68 | 1.6 | 6.4 | 0.00 | 0.10 | 0.00 | 71 | 1019.2 |
| 20260505031759 | 16 | 131 | 1.6 | 6.4 | 0.00 | 0.10 | 0.00 | 71 | 1019.4 |
| 20260505031244 | 16 | 290 | 1.6 | 6.4 | 0.00 | 0.10 | 0.00 | 71 | 1019.4 |
| 20260505030736 | 16 | 49 | 1.6 | 6.4 | 0.00 | 0.10 | 0.00 | 71 | 1019.4 |
| 20260505030240 | 16 | 54 | 1.6 | 6.4 | 0.00 | 0.10 | 0.00 | 71 | 1019.4 |
| 20260505025735 | 16 | 255 | 1.6 | 8.0 | 0.00 | 0.10 | 0.00 | 71 | 1019.4 |
| 20260505025221 | 16 | 262 | 1.6 | 8.0 | 0.00 | 0.10 | 0.00 | 71 | 1019.4 |
| 20260505024101 | 16 | 14 | 1.6 | 11.3 | 0.00 | 0.10 | 0.00 | 71 | 1019.4 |
| 20260505022919 | 16 | 323 | 1.6 | 11.3 | 0.00 | 0.10 | 0.00 | 72 | 1019.5 |
| 20260505022410 | 16 | 342 | 3.2 | 11.3 | 0.00 | 0.10 | 0.00 | 72 | 1019.6 |
| 20260505015338 | 16 | 272 | 3.2 | 9.7 | 0.00 | 0.10 | 0.00 | 73 | 1019.7 |
| 20260505014842 | 15 | 279 | 3.2 | 9.7 | 0.00 | 0.10 | 0.00 | 73 | 1019.7 |
| 20260505014350 | 15 | 301 | 1.6 | 9.7 | 0.00 | 0.10 | 0.00 | 73 | 1019.7 |
| 20260505013841 | 15 | 257 | 3.2 | 9.7 | 0.00 | 0.10 | 0.00 | 74 | 1019.8 |
| 20260505012655 | 15 | 281 | 3.2 | 16.1 | 0.00 | 0.10 | 0.00 | 74 | 1019.9 |
| 20260505010817 | 15 | 272 | 4.8 | 17.7 | 0.00 | 0.10 | 0.00 | 74 | 1019.9 |
| 20260505010322 | 15 | 286 | 4.8 | 12.9 | 0.00 | 0.10 | 0.00 | 73 | 1019.8 |
| 20260505005210 | 15 | 60 | 4.8 | 12.9 | 0.00 | 0.10 | 0.00 | 75 | 1019.8 |
| 20260505004707 | 15 | 37 | 4.8 | 11.3 | 0.00 | 0.10 | 0.00 | 75 | 1019.7 |
| 20260505004154 | 15 | 342 | 4.8 | 11.3 | 0.00 | 0.10 | 0.00 | 76 | 1019.6 |
| 20260505003027 | 15 | 273 | 4.8 | 12.9 | 0.00 | 0.10 | 0.00 | 76 | 1019.5 |
| 20260505002511 | 15 | 288 | 4.8 | 20.9 | 0.00 | 0.10 | 0.00 | 77 | 1019.5 |
| 20260505002011 | 14 | 275 | 4.8 | 20.9 | 0.00 | 0.10 | 0.00 | 77 | 1019.4 |
| 20260505000852 | 14 | 260 | 6.4 | 12.9 | 0.00 | 0.10 | 0.00 | 78 | 1019.3 |
| 20260505000350 | 14 | 324 | 6.4 | 12.9 | 0.00 | 0.10 | 0.00 | 78 | 1019.2 |
| 20260504235838 | 14 | 306 | 4.8 | 12.9 | 0.00 | 0.10 | 0.00 | 78 | 1019.2 |
| 20260504235343 | 14 | 331 | 4.8 | 11.3 | 0.00 | 0.10 | 0.00 | 79 | 1019.2 |
| 20260504234841 | 14 | 284 | 6.4 | 12.9 | 0.00 | 0.10 | 0.00 | 79 | 1019.1 |
| 20260504234336 | 14 | 271 | 6.4 | 12.9 | 0.00 | 0.10 | 0.00 | 80 | 1019.1 |
| 20260504233846 | 14 | 286 | 4.8 | 17.7 | 0.00 | 0.10 | 0.00 | 80 | 1019.1 |
| 20260504233356 | 14 | 294 | 4.8 | 17.7 | 0.00 | 0.10 | 0.00 | 80 | 1019.0 |
| 20260504232859 | 14 | 277 | 6.4 | 17.7 | 0.00 | 0.10 | 0.00 | 80 | 1019.0 |
| 20260504232404 | 14 | 276 | 6.4 | 17.7 | 0.00 | 0.10 | 0.00 | 80 | 1019.0 |
| 20260504231911 | 14 | 350 | 6.4 | 14.5 | 0.00 | 0.10 | 0.00 | 80 | 1019.0 |
| 20260504230757 | 14 | 298 | 6.4 | 19.3 | 0.00 | 0.10 | 0.00 | 80 | 1018.8 |
| 20260504225014 | 13 | 240 | 8.0 | 19.3 | 0.00 | 0.10 | 0.00 | 81 | 1018.7 |
| 20260504224507 | 13 | 297 | 8.0 | 19.3 | 0.00 | 0.10 | 0.00 | 81 | 1018.6 |
| 20260504223959 | 13 | 279 | 6.4 | 16.1 | 0.00 | 0.10 | 0.00 | 81 | 1018.6 |
| 20260504223441 | 14 | 268 | 4.8 | 19.3 | 0.00 | 0.10 | 0.00 | 83 | 1018.4 |
| 20260504222938 | 13 | 260 | 6.4 | 19.3 | 0.00 | 0.10 | 0.00 | 83 | 1018.4 |
| 20260504221811 | 13 | 289 | 6.4 | 19.3 | 0.00 | 0.10 | 0.00 | 83 | 1018.1 |
| 20260504221252 | 13 | 300 | 8.0 | 19.3 | 0.00 | 0.10 | 0.00 | 83 | 1018.0 |
| 20260504220744 | 13 | 276 | 8.0 | 19.3 | 0.00 | 0.10 | 0.00 | 83 | 1017.9 |
| 20260504220242 | 13 | 298 | 6.4 | 16.1 | 0.00 | 0.10 | 0.00 | 84 | 1017.8 |
| 20260504215125 | 13 | 310 | 8.0 | 17.7 | 0.00 | 0.10 | 0.00 | 84 | 1017.7 |
| 20260504212710 | 13 | 295 | 8.0 | 20.9 | 0.00 | 0.10 | 0.00 | 85 | 1017.3 |
| 20260504211538 | 13 | 268 | 4.8 | 17.7 | 0.00 | 0.10 | 0.00 | 85 | 1017.0 |
| 20260504211045 | 13 | 262 | 4.8 | 17.7 | 0.00 | 0.10 | 0.00 | 85 | 1016.9 |
| 20260504210546 | 13 | 231 | 4.8 | 17.7 | 0.00 | 0.10 | 0.00 | 85 | 1016.8 |
| 20260504210049 | 13 | 37 | 4.8 | 17.7 | 0.00 | 0.10 | 0.00 | 85 | 1016.8 |
| 20260504205553 | 13 | 309 | 6.4 | 14.5 | 0.00 | 0.10 | 0.00 | 85 | 1016.7 |
| 20260504205049 | 13 | 257 | 9.7 | 25.7 | 0.00 | 0.10 | 0.00 | 85 | 1016.6 |
| 20260504204530 | 13 | 250 | 9.7 | 25.7 | 0.00 | 0.10 | 0.00 | 85 | 1016.6 |
| 20260504204038 | 13 | 293 | 11.3 | 25.7 | 0.00 | 0.10 | 0.00 | 85 | 1016.6 |
| 20260504202858 | 13 | 276 | 8.0 | 19.3 | 0.00 | 0.10 | 0.00 | 86 | 1016.5 |
| 20260504202346 | 13 | 295 | 6.4 | 19.3 | 0.00 | 0.10 | 0.00 | 86 | 1016.4 |
| 20260504201234 | 13 | 255 | 4.8 | 14.5 | 0.00 | 0.10 | 0.00 | 86 | 1016.1 |
| 20260504200107 | 13 | 279 | 4.8 | 17.7 | 0.00 | 0.10 | 0.00 | 86 | 1016.0 |
| 20260504195558 | 13 | 281 | 4.8 | 17.7 | 0.00 | 0.10 | 0.00 | 86 | 1016.0 |
| 20260504195048 | 13 | 344 | 4.8 | 17.7 | 0.00 | 0.10 | 0.00 | 86 | 1015.9 |
| 20260504194543 | 13 | 266 | 4.8 | 12.9 | 0.00 | 0.10 | 0.00 | 86 | 1015.9 |
| 20260504194049 | 13 | 291 | 4.8 | 12.9 | 0.00 | 0.10 | 0.00 | 85 | 1015.8 |
| 20260504193536 | 13 | 290 | 3.2 | 12.9 | 0.00 | 0.10 | 0.00 | 85 | 1015.7 |
| 20260504193026 | 13 | 287 | 4.8 | 19.3 | 0.00 | 0.10 | 0.00 | 85 | 1015.7 |
| 20260504192523 | 13 | 287 | 4.8 | 19.3 | 0.00 | 0.10 | 0.00 | 85 | 1015.7 |
| 20260504191353 | 13 | 264 | 4.8 | 20.9 | 0.00 | 0.10 | 0.00 | 84 | 1015.5 |
| 20260504190836 | 13 | 249 | 6.4 | 20.9 | 0.00 | 0.10 | 0.00 | 84 | 1015.5 |
| 20260504190330 | 13 | 254 | 8.0 | 20.9 | 0.00 | 0.10 | 0.00 | 84 | 1015.4 |
| 20260504185832 | 13 | 347 | 9.7 | 20.9 | 0.00 | 0.10 | 0.00 | 84 | 1015.3 |
| 20260504184716 | 14 | 255 | 6.4 | 16.1 | 0.00 | 0.10 | 0.00 | 84 | 1015.2 |
| 20260504184212 | 13 | 319 | 8.0 | 16.1 | 0.00 | 0.10 | 0.00 | 84 | 1015.1 |
| 20260504183659 | 13 | 304 | 4.8 | 16.1 | 0.00 | 0.10 | 0.00 | 84 | 1015.0 |
| 20260504183209 | 13 | 285 | 3.2 | 16.1 | 0.00 | 0.10 | 0.00 | 84 | 1015.0 |
| 20260504182656 | 13 | 322 | 3.2 | 12.9 | 0.00 | 0.10 | 0.00 | 84 | 1014.9 |
| 20260504181526 | 13 | 303 | 4.8 | 14.5 | 0.00 | 0.10 | 0.00 | 83 | 1014.8 |
| 20260504181021 | 13 | 256 | 4.8 | 14.5 | 0.00 | 0.10 | 0.00 | 83 | 1014.7 |
| 20260504180508 | 13 | 326 | 4.8 | 14.5 | 0.00 | 0.10 | 0.00 | 83 | 1014.6 |
| 20260504175952 | 13 | 296 | 3.2 | 16.1 | 0.00 | 0.10 | 0.00 | 83 | 1014.6 |
| 20260504175458 | 13 | 291 | 3.2 | 16.1 | 0.00 | 0.10 | 0.00 | 83 | 1014.5 |
| 20260504175008 | 13 | 27 | 4.8 | 16.1 | 0.00 | 0.10 | 0.00 | 83 | 1014.4 |
| 20260504174454 | 13 | 253 | 4.8 | 16.1 | 0.00 | 0.10 | 0.00 | 83 | 1014.4 |
| 20260504173951 | 13 | 288 | 4.8 | 12.9 | 0.00 | 0.10 | 0.00 | 83 | 1014.3 |
| 20260504173448 | 14 | 216 | 4.8 | 16.1 | 0.00 | 0.10 | 0.00 | 83 | 1014.4 |
| 20260504172951 | 14 | 277 | 4.8 | 16.1 | 0.00 | 0.10 | 0.00 | 82 | 1014.4 |
| 20260504172448 | 14 | 283 | 4.8 | 17.7 | 0.00 | 0.10 | 0.00 | 82 | 1014.4 |
| 20260504171920 | 14 | 253 | 4.8 | 17.7 | 0.00 | 0.10 | 0.00 | 82 | 1014.4 |
| 20260504170802 | 14 | 276 | 4.8 | 17.7 | 0.00 | 0.10 | 0.00 | 82 | 1014.2 |
| 20260504160413 | 14 | 301 | 8.0 | 17.7 | 0.00 | 0.10 | 0.00 | 80 | 1013.8 |
| 20260504151004 | 14 | 270 | 8.0 | 22.5 | 0.00 | 0.10 | 0.00 | 79 | 1013.5 |
| 20260504150450 | 14 | 315 | 8.0 | 19.3 | 0.00 | 0.10 | 0.00 | 79 | 1013.5 |
| 20260504141257 | 15 | 204 | 8.0 | 19.3 | 0.00 | 0.10 | 0.00 | 79 | 1013.1 |
| 20260504140737 | 15 | 204 | 8.0 | 19.3 | 0.00 | 0.10 | 0.00 | 79 | 1013.1 |
| 20260504140228 | 15 | 262 | 8.0 | 19.3 | 0.00 | 0.10 | 0.00 | 79 | 1013.1 |
| 20260504130517 | 15 | 316 | 8.0 | 20.9 | 0.00 | 0.10 | 0.10 | 78 | 1012.8 |
| 20260504110534 | 15 | 321 | 3.2 | 17.7 | 0.10 | 0.10 | 0.10 | 79 | 1011.5 |